This is the latest recevied weather packets stored in our database for station/object N5YHM-13. If no packets are shown the sender has not sent any weather packets the latest 10 day(s).
| Time | Temp. | Humidity | Pressure | Rain* | Wind** | Luminosity | Snow |
|---|---|---|---|---|---|---|---|
| 1777647250 | 17.78° C | 99% | 1015.6 hPa | 126.49 mm | - | 4 W/m² | - |
| 1777646948 | 17.78° C | 99% | 1015.6 hPa | 126.49 mm | - | 4 W/m² | - |
| 1777646643 | 17.78° C | 99% | 1015.6 hPa | 126.49 mm | - | 5 W/m² | - |
| 1777646339 | 17.78° C | 99% | 1015.5 hPa | 126.49 mm | - | 4 W/m² | - |
| 1777646036 | 17.78° C | 99% | 1015.1 hPa | 126.49 mm | - | 4 W/m² | - |
| 1777645732 | 17.78° C | 99% | 1014.7 hPa | 126.49 mm | - | 5 W/m² | - |
| 1777645429 | 17.78° C | 99% | 1014.6 hPa | 126.49 mm | - | 4 W/m² | - |
| 1777645125 | 17.78° C | 99% | 1014.3 hPa | 126.49 mm | - | 8 W/m² | - |
| 1777644821 | 17.78° C | 99% | 1013.9 hPa | 126.49 mm | - | 7 W/m² | - |
| 1777644520 | 17.78° C | 99% | 1014.1 hPa | 126.49 mm | - | 7 W/m² | - |
| 1777644215 | 17.78° C | 99% | 1014.3 hPa | 126.49 mm | - | 8 W/m² | - |
| 1777643912 | 17.78° C | 99% | 1014.6 hPa | 126.49 mm | - | 7 W/m² | - |
| 1777643610 | 17.78° C | 99% | 1014.5 hPa | 126.49 mm | - | 6 W/m² | - |
| 1777643307 | 17.78° C | 99% | 1014.8 hPa | 126.49 mm | - | 5 W/m² | - |
| 1777643003 | 17.78° C | 99% | 1015 hPa | 126.49 mm | - | 3 W/m² | - |
| 1777642699 | 17.78° C | 99% | 1015.2 hPa | 126.49 mm | - | 2 W/m² | - |
| 1777642397 | 17.78° C | 99% | 1015.2 hPa | 126.49 mm | - | 3 W/m² | - |
| 1777642093 | 17.78° C | 99% | 1015 hPa | 126.49 mm | - | 5 W/m² | - |
| 1777641789 | 17.22° C | 99% | 1015 hPa | 126.49 mm | - | 5 W/m² | - |
| 1777641489 | 17.22° C | 99% | 1014.7 hPa | 126.49 mm | - | 4 W/m² | - |
| 1777641185 | 17.22° C | 99% | 1014.6 hPa | 126.49 mm | - | 5 W/m² | - |
| 1777640881 | 17.22° C | 99% | 1014.5 hPa | 126.49 mm | - | 4 W/m² | - |
| 1777640579 | 17.22° C | 99% | 1014.5 hPa | 126.49 mm | - | 3 W/m² | - |
| 1777640275 | 17.22° C | 99% | 1014.6 hPa | 126.49 mm | - | 2 W/m² | - |
| 1777639971 | 17.78° C | 99% | 1014.7 hPa | 126.49 mm | - | 1 W/m² | - |
* Rain latest hour (hover to see other rain measurements)
** Current wind speed in m/s (hover to see current wind gust speed)